,

(GMT )
Al Udeid

Weather History for KQIR - October, 2011

Change the Weather History Date:

Friday, October 21, 2011

  Actual Average Record
Temperature  
Mean Temperature 83 °F -  
Max Temperature 91 °F - - ()
Min Temperature 75 °F - - ()
Cooling Degree Days 18    
Growing Degree Days 33 (Base 50)    
Moisture  
Dew Point 63 °F    
Average Humidity 55    
Maximum Humidity 82    
Minimum Humidity 34    
Precipitation  
Precipitation 0.00 in - - ()
Sea Level Pressure  
Sea Level Pressure 29.87 in    
Wind  
Wind Speed 15 mph ()    
Max Wind Speed 26 mph    
Max Gust Speed 33 mph    
Visibility 6.2 miles    
Events      
Averages and records for this station are not official NWS values.
T = Trace of Precipitation, MM = Missing Value Source: Averaged Metar Reports

Daily Weather History Graph

Daily Weather History Graph

Search for Another Location

Airport or City:

Trip Planner

Search our weather history database for the weather conditions in past years. The results will help you decide how hot, cold, wet, or windy it might be!

Date:

Astronomy

Oct. 21, 2011 Rise Set
Actual Time 5:35 AM +03 5:02 PM +03
Civil Twilight 5:12 AM +03 5:25 PM +03
Nautical Twilight 4:45 AM +03 5:52 PM +03
Astronomical Twilight 4:19 AM +03 6:19 PM +03
Moon No Moon Rise 12:58 PM +03 (10/21)
Length of Visible Light 12h 13m
Length of Day
11h 26m
Last Quarter, 37% of the Moon is Illuminated
Oct 21
Last Quarter
Oct 26
New
Nov 2
First Quarter
Nov 10
Full
Nov 18
Last Quarter

Hourly Weather History & Observations

Time (+03) Temp. Heat Index Dew Point Humidity Pressure Visibility Wind Dir Wind Speed Gust Speed Precip Events Conditions
12:55 AM 78.4 °F - 72.0 °F 80% 29.84 in 6.2 mi NW 12.7 mph - N/A   Clear
1:55 AM 78.6 °F - 71.4 °F 78% 29.83 in 6.2 mi NW 12.7 mph - N/A   Clear
2:55 AM 78.3 °F - 71.4 °F 79% 29.84 in 6.2 mi NW 12.7 mph - N/A   Clear
3:55 AM 77.2 °F - 71.2 °F 82% 29.84 in 6.2 mi NW 12.7 mph - N/A   Clear
4:55 AM 76.8 °F - 69.8 °F 79% 29.86 in 6.2 mi NW 11.5 mph - N/A   Clear
5:55 AM 76.5 °F - 68.9 °F 77% 29.87 in 6.2 mi NW 11.5 mph - N/A   Clear
6:55 AM 80.1 °F 82.4 °F 67.5 °F 65% 29.89 in 6.2 mi NNW 13.8 mph - N/A   Clear
7:55 AM 84.2 °F 87.3 °F 67.8 °F 58% 29.90 in 6.2 mi NNW 21.9 mph - N/A   Clear
8:55 AM 87.3 °F 89.2 °F 65.7 °F 48% 29.91 in 6.2 mi NNW 25.3 mph 29.9 mph N/A   Clear
9:55 AM 89.8 °F 90.4 °F 62.6 °F 40% 29.90 in 6.2 mi NNW 23.0 mph 29.9 mph N/A   Clear
10:55 AM 90.9 °F 90.6 °F 60.4 °F 36% 29.88 in 6.2 mi North 24.2 mph - N/A   Clear
11:55 AM 91.6 °F 91.0 °F 59.9 °F 34% 29.87 in 6.2 mi NNW 26.5 mph 33.4 mph N/A   Clear
12:55 PM 91.0 °F 90.9 °F 60.6 °F 36% 29.85 in 6.2 mi NNW 23.0 mph 32.2 mph N/A   Clear
1:55 PM 89.4 °F 88.2 °F 57.6 °F 34% 29.85 in 6.2 mi NNW 26.5 mph - N/A   Clear
2:55 PM 88.0 °F 86.7 °F 57.4 °F 35% 29.85 in 6.2 mi NNW 26.5 mph 33.4 mph N/A   Clear
3:55 PM 85.5 °F 84.5 °F 57.0 °F 38% 29.86 in 6.2 mi NNW 24.2 mph - N/A   Clear
4:55 PM 82.6 °F 82.5 °F 58.8 °F 44% 29.87 in 6.2 mi NNW 23.0 mph 28.8 mph N/A   Clear
5:55 PM 80.4 °F 80.9 °F 58.3 °F 47% 29.88 in 6.2 mi NNW 19.6 mph - N/A   Clear
6:55 PM 79.2 °F - 59.4 °F 51% 29.90 in 6.2 mi NNW 16.1 mph - N/A   Clear
7:55 PM 78.3 °F - 59.5 °F 52% 29.91 in 6.2 mi NNW 16.1 mph - N/A   Clear
8:55 PM 77.4 °F - 59.4 °F 54% 29.90 in 6.2 mi NNW 16.1 mph - N/A   Clear
9:55 PM 76.1 °F - 60.6 °F 59% 29.90 in 6.2 mi NW 13.8 mph - N/A   Clear
10:55 PM 75.9 °F - 59.5 °F 57% 29.88 in 6.2 mi NW 18.4 mph - N/A   Clear
11:55 PM 75.0 °F - 59.2 °F 58% 29.88 in 6.2 mi NW 15.0 mph - N/A   Clear